Regional Weather Roundup
Issued by NWS

Home | Current Version | Previous Version | Text Only | Print | Product List | Glossary On
Versions: 1 2 3 4 5 6 7 8 9 10 11 12 13 14 15 16 17 18 19 20 21 22 23 24 25 26 27 28 29 30 31 32 33 34 35 36 37 38 39 40 41 42 43 44 45 46 47 48 49 50
000
ASUS45 KBOU 271607
RWRCO

WEATHER ROUNDUP FOR COLORADO
NATIONAL WEATHER SERVICE DENVER/BOULDER CO
1000 AM MDT THU APR 27 2017

NOTE: "FAIR" INDICATES FEW OR NO CLOUDS BELOW 12000 FEET WITH NO
SIGNIFICANT WEATHER AND/OR OBSTRUCTIONS TO VISIBILITY.

COZ001>005-013-030-031-271700-
...NORTHWEST COLORADO...

CITY           SKY/WX    TMP DP  RH WIND       PRES   REMARKS
CRAIG          CLOUDY    41  29  62 NW10      29.67S
HAYDEN         FAIR      36  27  69 NW16      29.66S
MEEKER         HVY SNOW  33  32  96 N10       29.69R VSB 1/4 WCI  25
MOUNT WERNER   NOT AVBL
STEAMBOAT SPGS CLOUDY    32  31  97 W7        29.66R VSB 1   WCI  25
WALDEN           N/A     36  27  69 NW10      29.61R
$$

COZ006>008-011-271700-
...WEST CENTRAL VALLEYS...

CITY           SKY/WX    TMP DP  RH WIND       PRES   REMARKS
GRAND JUNCTION PTSUNNY   49  42  77 NW12      29.68S
MONTROSE       FAIR      47  37  68 N8        29.71R
EAGLE          LGT RAIN  39  36  87 W9G21     29.65S
RIFLE          FAIR      49  35  58 W17G26    29.65F
DELTA          PTSUNNY   49  42  78 CALM      29.70S
NUCLA          NOT AVBL
$$

COZ017>023-064>068-271700-
...SOUTHWEST COLORADO...

CITY           SKY/WX    TMP DP  RH WIND       PRES   REMARKS
DURANGO        LGT RAIN  40  38  93 W6        29.74R
CORTEZ         PTSUNNY   45  38  76 CALM      29.74F
PAGOSA SPRINGS FOG       35  35 100 S5        29.75S VSB 3/4 WCI  31
TELLURIDE      CLOUDY    36  29  77 W8        29.78S
WOLF CREEK PAS CLOUDY    23  23 100 SW9       29.82S VSB 1/2 WCI  13
$$

COZ009-010-012-014-032>034-037-058>063-271700-
...CENTRAL COLORADO...

CITY           SKY/WX    TMP DP  RH WIND       PRES   REMARKS
ASPEN          FLURRIES  34  34 100 CALM      29.65S
BUENA VISTA    FLURRIES  37  32  83 N3        29.63S
COPPER MTN     CLOUDY    27  21  80 W8        29.67F WCI  18
BERTHOUD PASS  CLOUDY    19   9  63 MISG      29.64S
COTTONWOOD PAS FOG       34  32  93 CALM      29.65S VSB 1/4
GUNNISON       PTSUNNY   40  31  70 SW21G26   29.66F
KREMMLING      SNOW      37  36  93 S3        29.63F VSB 1/2
LEADVILLE      PTSUNNY   30  22  72 VRB5      29.64F WCI  25
MONARCH PASS   CLOUDY    23  23 100 SW32G45   29.79S WCI   5
SALIDA         FAIR      47  35  65 S8        29.67F
SUNLIGHT       CLOUDY    27  23  86 MISG      29.73R
WILKERSON PASS SNOW      27  25  93 SW10G17   29.68F VSB<1/4 WCI  17
$$

COZ069>075-271700-
...SAN LUIS VALLEY/SANGRE DE CRISTO MOUNTAINS...

CITY           SKY/WX    TMP DP  RH WIND       PRES   REMARKS
ALAMOSA        PTSUNNY   44  34  67 NE10G17   29.65F
LA VETA PASS   CLOUDY    34  30  86 SW12G24   29.79R WCI  25
SAGUACHE       FAIR      46  30  53 NW23G30   29.64F
$$

COZ035-036-038>040-271700-
...NORTHERN COLORADO FRONT RANGE...

CITY           SKY/WX    TMP DP  RH WIND       PRES   REMARKS
DENVER INTL AP PTSUNNY   46  36  68 W12       29.55F
DMNS CITY PARK   N/A     48  35  61 N2G9      29.53F
AURORA         PTSUNNY   46  36  69 W9        29.55F
FRONT RANGE AP CLOUDY    48  37  66 NW8G20    29.55F
ERIE MUNI ARPT FAIR      46  37  70 N6        29.55F
BOULDER MUN AP CLOUDY    45  36  70 CALM      29.55S
CENTENNIAL     PTSUNNY   45  35  68 CALM      29.54F
BROOMFIELD     CLOUDY    45  37  76 N8        29.55F
FORT COLLINS   FAIR      47  37  68 N8        29.55F
LONGMONT       CLOUDY    48  37  66 CALM      29.57F HAZE
$$

COZ041-046-047-076>085-087-088-271700-
...PIKES PEAK/PALMER DIVIDE AND SOUTHERN FOOTHILLS...

CITY           SKY/WX    TMP DP  RH WIND       PRES   REMARKS
COLO. SPRINGS  PTSUNNY   47  34  60 E9        29.54F
A. F. ACADEMY  FAIR      44  32  62 W3        29.55F
SCHRIEVER AFB  PTSUNNY   46  34  62 N5        29.55F
ELLICOTT       NOT AVBL
FALCON         FAIR      46  32  58 E6        29.57F
FORT CARSON    FAIR      45  34  65 SW3       29.55F
LIMON          FAIR      49  37  63 SE6       29.54F
MONUMENT HILL  CLOUDY    43  30  61 W3        29.57F
TRINIDAD       FAIR      56  33  42 W8        29.55F
$$

COZ042>045-048>051-090-091-271700-
...NORTHEAST COLORADO...

CITY           SKY/WX    TMP DP  RH WIND       PRES   REMARKS
GREELEY ARPT   PTSUNNY   46  37  71 NE7       29.56F
AKRON          CLOUDY    50  39  66 NE5       29.55S
BURLINGTON     NOT AVBL
WRAY           NOT AVBL
STERLING       CLOUDY    50  43  76 N6        29.55F
HOLYOKE        FAIR      46  36  66 E10       29.58F
FORT MORGAN    PTSUNNY   51  38  62 E9        29.54F
$$

COZ086-089-092>099-271700-
...SOUTHEAST COLORADO...

CITY           SKY/WX    TMP DP  RH WIND       PRES   REMARKS
PUEBLO         PTSUNNY   50  39  66 W6        29.54F
LA JUNTA       FAIR      55  42  61 W7        29.52F
LAMAR          FAIR      58  37  45 CALM      29.49F
SPRINGFIELD      N/A     54  39  57 S14       29.52F
$$



USA.gov is the U.S. government's official web portal to all federal, state and local government web resources and services.